This is the latest recevied weather packets stored in our database for station/object IT9CNT. If no packets are shown the sender has not sent any weather packets the latest 10 day(s).
| Time | Temp. | Humidity | Pressure | Rain* | Wind** | Luminosity | Snow |
|---|---|---|---|---|---|---|---|
| 1787595183 | 27.78° C | 86% | 1013.5 hPa | 6.35 mm | - | - | - |
| 1787595124 | 27.78° C | 87% | 1013.3 hPa | 6.35 mm | - | - | - |
| 1787595063 | 27.78° C | 87% | 1013.2 hPa | 6.35 mm | - | - | - |
| 1787595003 | 27.78° C | 87% | 1013.4 hPa | 6.1 mm | - | - | - |
| 1787594943 | 27.78° C | 87% | 1013.3 hPa | 6.1 mm | - | - | - |
| 1787594883 | 27.78° C | 86% | 1013.4 hPa | 5.33 mm | - | - | - |
| 1787594823 | 27.78° C | 86% | 1013.4 hPa | 4.83 mm | - | - | - |
| 1787594763 | 27.78° C | 86% | 1013.5 hPa | 4.83 mm | - | - | - |
| 1787594703 | 27.78° C | 86% | 1013.4 hPa | 4.57 mm | - | - | - |
| 1787594643 | 27.78° C | 85% | 1013.5 hPa | 3.56 mm | - | - | - |
| 1787594583 | 27.78° C | 85% | 1013.4 hPa | 3.56 mm | - | - | - |
| 1787594523 | 27.78° C | 85% | 1013.6 hPa | 3.56 mm | - | - | - |
| 1787594463 | 27.78° C | 85% | 1013.4 hPa | 3.3 mm | - | - | - |
| 1787594403 | 27.78° C | 85% | 1013.5 hPa | 3.05 mm | - | - | - |
| 1787594343 | 27.78° C | 84% | 1013.2 hPa | 2.79 mm | - | - | - |
| 1787594283 | 27.78° C | 84% | 1013.3 hPa | 2.03 mm | - | - | - |
| 1787594223 | 27.78° C | 84% | 1013.5 hPa | 2.03 mm | - | - | - |
| 1787594163 | 27.78° C | 84% | 1013.7 hPa | 1.27 mm | - | - | - |
| 1787594103 | 27.78° C | 84% | 1013.3 hPa | 1.27 mm | - | - | - |
| 1787594043 | 27.78° C | 84% | 1013.6 hPa | 1.02 mm | - | - | - |
| 1787593983 | 27.78° C | 84% | 1013.5 hPa | 1.02 mm | - | - | - |
| 1787593923 | 28.33° C | 82% | 1013.4 hPa | 0 mm | - | - | - |
| 1787593863 | 28.33° C | 82% | 1013.2 hPa | 0 mm | - | - | - |
| 1787593803 | 28.33° C | 82% | 1013.6 hPa | 0 mm | - | - | - |
| 1787593743 | 28.33° C | 82% | 1013.4 hPa | 0 mm | - | - | - |
* Rain latest hour (hover to see other rain measurements)
** Current wind speed in m/s (hover to see current wind gust speed)